EW7774 Weather Reports


Display with metric or nautical units.
time (UTC)temp
F
wind
direction
speed
MPH
gust
MPH
rain 1hr
in
rain 24hr
in
rain mn
in
humidity
%
barometer
mb
20260510234320 63 0.0 0.0 0.00 0.05 0.05 91 1014.6
20260510234026 62 0.0 0.0 0.00 0.05 0.05 90 1014.9
20260510233827 63 0.0 0.0 0.00 0.05 0.05 91 1014.4
20260510233526 62 0.0 0.0 0.00 0.05 0.05 90 1014.9
20260510233331 63 0.0 0.0 0.00 0.05 0.05 91 1014.6
20260510233039 62 0.0 0.0 0.00 0.05 0.05 90 1015.1
20260510232836 63 0.0 0.0 0.00 0.05 0.05 90 1014.7
20260510232525 63 0.0 0.0 0.00 0.05 0.05 89 1015.1
20260510232341 63 0.0 0.0 0.00 0.05 0.05 90 1014.7
20260510232025 63 0.0 0.0 0.00 0.05 0.05 89 1015.2
20260510231827 63 0.0 0.0 0.00 0.05 0.05 89 1014.8
20260510231538 63 0.0 0.0 0.00 0.05 0.05 89 1015.2
20260510231318 63 0.0 0.0 0.00 0.05 0.05 89 1014.6
20260510231026 63 0.0 0.0 0.00 0.05 0.05 89 1015.0
20260510230825 64 0.0 0.0 0.00 0.05 0.05 90 1014.4
20260510230524 63 0.0 0.0 0.00 0.05 0.05 89 1014.7
20260510230332 64 0.0 0.0 0.00 0.05 0.05 90 1014.2
20260510230043 63 0.0 0.0 0.00 0.05 0.05 89 1014.7
20260510225816 64 0.0 0.0 0.00 0.05 0.05 90 1014.3
20260510225526 63 0.0 0.0 0.00 0.05 0.05 90 1014.5
20260510225321 64 0.0 0.0 0.00 0.05 0.05 90 1014.1
20260510225029 63 0.0 0.0 0.00 0.05 0.05 90 1014.4
20260510224824 64 0.0 0.0 0.00 0.05 0.05 90 1014.0
20260510224545 64 0.0 0.0 0.00 0.05 0.05 89 1014.2
20260510224329 64 0.0 0.0 0.00 0.05 0.05 91 1013.7
20260510224022 64 0.0 0.0 0.00 0.05 0.05 91 1014.1
20260510223816 64 0.0 0.0 0.00 0.05 0.05 92 1013.5
20260510223526 64 0.0 0.0 0.00 0.05 0.05 91 1014.0
20260510223324 64 0.0 0.0 0.00 0.05 0.05 92 1013.5
20260510223037 64 0.0 0.0 0.00 0.05 0.05 91 1013.9
20260510222831 64 0.0 0.0 0.00 0.05 0.05 91 1013.4
20260510222525 64 0.0 0.0 0.00 0.05 0.05 91 1013.9
20260510222321 65 0.0 0.0 0.00 0.05 0.05 91 1013.5
20260510222025 64 0.0 0.0 0.00 0.05 0.05 91 1014.0
20260510221825 65 0.0 0.0 0.00 0.05 0.05 91 1013.7
20260510221538 64 0 0.0 0.0 0.00 0.05 0.05 91 1014.1
20260510221353 65 0.0 0.0 0.00 0.05 0.05 91 1013.6
20260510221026 64 0 0.0 0.0 0.00 0.05 0.05 90 1014.0
20260510220816 65 0.0 0.0 0.00 0.05 0.05 91 1013.4
20260510220529 64 0 0.0 0.0 0.00 0.05 0.05 90 1013.8
20260510220320 65 0.0 0.0 0.00 0.05 0.05 91 1013.2
20260510220040 64 0 0.0 0.0 0.01 0.05 0.05 91 1013.6
20260510215848 65 0.0 0.0 0.01 0.05 0.05 91 1013.2
20260510215526 64 0 0.0 0.0 0.01 0.05 0.05 90 1013.6
20260510215314 65 0.0 0.0 0.01 0.05 0.05 91 1013.1
20260510215025 64 0 0.0 0.0 0.03 0.05 0.05 90 1013.7
20260510214820 65 0.0 0.0 0.04 0.05 0.05 91 1013.3
20260510214537 64 0 0.0 0.0 0.05 0.05 0.05 90 1013.7
20260510214348 65 0.0 0.0 0.05 0.05 0.05 91 1013.3
20260510214027 64 0 0.0 0.0 0.05 0.05 0.05 90 1013.7
20260510213814 65 0.0 0.0 0.05 0.05 0.05 91 1013.2
20260510213528 64 0 0.0 0.0 0.05 0.05 0.05 90 1013.6
20260510213321 65 0.0 0.0 0.05 0.05 0.05 90 1013.0
20260510213056 64 0 0.0 0.0 0.05 0.05 0.05 89 1013.4
20260510212849 65 0.0 0.0 0.05 0.05 0.05 89 1012.9
20260510212525 64 0 0.0 0.0 0.05 0.05 0.05 88 1013.4
20260510212315 65 0.0 0.0 0.05 0.05 0.05 88 1013.0
20260510212028 64 0 0.0 0.0 0.05 0.05 0.05 87 1013.4
20260510211827 65 0.0 0.0 0.05 0.05 0.05 87 1012.8
20260510211541 65 0.0 0.0 0.05 0.05 0.05 86 1013.3
20260510211314 66 0.0 0.0 0.05 0.05 0.05 85 1012.7
20260510211025 66 0.0 0.0 0.05 0.05 0.05 82 1013.7
20260510210820 66 0.0 0.0 0.05 0.05 0.05 82 1013.5
20260510210525 66 0.0 0.0 0.05 0.05 0.05 81 1014.2
20260510210325 67 0.0 0.0 0.05 0.05 0.05 80 1013.9
20260510210038 67 0.0 0.0 0.04 0.04 0.04 79 1014.3
20260510205853 68 0.0 0.0 0.04 0.04 0.04 79 1013.9
20260510205526 69 0.0 0.0 0.04 0.04 0.04 76 1014.5
20260510205337 70 0.0 0.0 0.04 0.04 0.04 75 1014.0
20260510205025 71 0.0 0.0 0.02 0.02 0.02 71 1014.5
20260510204823 72 0.0 0.0 0.01 0.01 0.01 69 1014.0
20260510204539 73 0.0 0.0 0.00 0.00 0.00 65 1014.2
20260510204330 74 0.0 0.0 0.00 0.00 0.00 64 1013.6
20260510204027 74 0.0 0.0 0.00 0.00 0.00 60 1013.7
20260510203815 75 0.0 0.0 0.00 0.00 0.00 58 1013.0
20260510203525 75 0.0 0.0 0.00 0.00 0.00 56 1013.2
20260510203340 75 212 0.0 0.0 0.00 0.00 0.00 57 1012.6
20260510203038 75 0.0 0.0 0.00 0.00 0.00 57 1013.0
20260510202825 76 212 0.0 0.0 0.00 0.00 0.00 57 1012.3
20260510202528 75 0 0.0 0.0 0.00 0.00 0.00 57 1012.7
20260510202352 76 212 0.0 0.0 0.00 0.00 0.00 59 1012.1
20260510202026 75 0 0.0 0.0 0.00 0.00 0.00 55 1012.7
20260510201815 76 212 0.0 0.0 0.00 0.00 0.00 59 1012.0
20260510201538 75 0 0.0 0.0 0.00 0.00 0.00 56 1012.7
20260510201340 76 212 0.0 0.0 0.00 0.00 0.00 54 1012.0
20260510201025 75 0 0.0 0.0 0.00 0.00 0.00 53 1012.7
20260510200828 76 212 0.0 0.0 0.00 0.00 0.00 55 1012.0
20260510200525 75 0 0.0 0.0 0.00 0.00 0.00 52 1012.6
20260510200312 76 212 0.0 0.0 0.00 0.00 0.00 53 1012.0
20260510200044 75 0 0.0 0.0 0.00 0.00 0.00 52 1012.6
20260510195820 76 212 0.0 0.0 0.00 0.00 0.00 53 1012.1
20260510195525 76 0 0.0 9.0 0.00 0.00 0.00 52 1012.8
20260510195324 76 212 0.0 8.0 0.00 0.00 0.00 52 1012.3
20260510195025 76 0 0.0 9.0 0.00 0.00 0.00 50 1012.8
20260510194828 77 212 0.0 8.0 0.00 0.00 0.00 51 1012.3
20260510194542 77 0 0.0 9.0 0.00 0.00 0.00 49 1012.8
20260510194315 77 182 0.0 0.0 0.00 0.00 0.00 50 1012.2
20260510194027 77 0 0.0 1.0 0.00 0.00 0.00 49 1012.8
20260510193840 78 182 0.0 1.0 0.00 0.00 0.00 49 1012.2
20260510193525 77 0 0.0 1.0 0.00 0.00 0.00 48 1012.7
20260510193323 78 192 0.0 1.0 0.00 0.00 0.00 51 1012.2
20260510193040 78 0 0.0 2.0 0.00 0.00 0.00 50 1012.8
20260510192827 78 192 0.0 2.0 0.00 0.00 0.00 48 1012.3
20260510192525 78 0 0.0 2.0 0.00 0.00 0.00 46 1012.8
20260510192355 79 192 0.0 2.0 0.00 0.00 0.00 46 1012.3
20260510192024 78 0 0.0 0.0 0.00 0.00 0.00 46 1012.8
20260510191818 79 192 0.0 0.0 0.00 0.00 0.00 45 1012.2
20260510191537 79 0 0.0 2.0 0.00 0.00 0.00 46 1012.8
20260510191327 79 193 0.0 2.0 0.00 0.00 0.00 48 1012.3
20260510191025 79 0 0.0 4.0 0.00 0.00 0.00 47 1012.9
20260510190815 79 193 0.0 4.0 0.00 0.00 0.00 48 1012.3
20260510190526 79 0 0.0 4.0 0.00 0.00 0.00 47 1012.8
20260510190322 79 181 1.0 4.0 0.00 0.00 0.00 44 1012.3
20260510190042 79 205 0.0 5.0 0.00 0.00 0.00 44 1012.8
20260510185826 79 171 1.0 5.0 0.00 0.00 0.00 45 1012.3
20260510185525 79 0 1.0 5.0 0.00 0.00 0.00 45 1012.8
20260510185314 79 160 1.0 5.0 0.00 0.00 0.00 45 1012.3
20260510185026 78 0 0.0 3.0 0.00 0.00 0.00 47 1012.9
20260510184821 79 196 0.0 3.0 0.00 0.00 0.00 47 1012.5
20260510184540 78 0 0.0 3.0 0.00 0.00 0.00 46 1012.9
20260510184325 79 196 0.0 3.0 0.00 0.00 0.00 46 1012.5
20260510184025 79 220 0.0 6.0 0.00 0.00 0.00 44 1012.9
20260510183830 79 286 1.0 6.0 0.00 0.00 0.00 45 1012.5
20260510183524 79 14 0.0 6.0 0.00 0.00 0.00 46 1012.9
20260510183314 80 330 1.0 6.0 0.00 0.00 0.00 46 1012.5
20260510183039 79 234 0.0 3.0 0.00 0.00 0.00 43 1012.9
20260510182822 80 155 0.0 3.0 0.00 0.00 0.00 45 1012.5
20260510182525 79 344 0.0 4.0 0.00 0.00 0.00 42 1012.9
20260510182326 80 20 1.0 4.0 0.00 0.00 0.00 43 1012.5
20260510182025 79 0 0.0 4.0 0.00 0.00 0.00 44 1012.8
20260510181818 79 37 0.0 3.0 0.00 0.00 0.00 48 1012.5
20260510181538 79 0 0.0 1.0 0.00 0.00 0.00 45 1012.8
20260510181321 79 130 0.0 0.0 0.00 0.00 0.00 46 1012.5
20260510181023 78 0 0.0 1.0 0.00 0.00 0.00 44 1013.0
20260510180826 79 188 0.0 1.0 0.00 0.00 0.00 49 1012.6
20260510180523 78 0 0.0 2.0 0.00 0.00 0.00 45 1013.1
20260510180333 78 194 0.0 2.0 0.00 0.00 0.00 44 1012.7
20260510180045 78 0 0.0 4.0 0.00 0.00 0.00 48 1013.0
20260510175818 79 181 0.0 4.0 0.00 0.00 0.00 47 1012.7
20260510175524 78 0 0.0 4.0 0.00 0.00 0.00 46 1013.1
20260510175322 79 171 0.0 4.0 0.00 0.00 0.00 46 1012.9
20260510175025 79 0 1.0 4.0 0.00 0.00 0.00 44 1013.2
20260510174849 79 162 1.0 4.0 0.00 0.00 0.00 44 1012.9
20260510174537 79 0 0.0 4.0 0.00 0.00 0.00 43 1013.1
20260510174312 80 200 0.0 4.0 0.00 0.00 0.00 46 1012.9
20260510174028 80 0 0.0 7.0 0.00 0.00 0.00 47 1013.2
20260510173820 80 200 1.0 6.0 0.00 0.00 0.00 44 1013.0
20260510173525 80 0 1.0 7.0 0.00 0.00 0.00 46 1013.3
20260510173325 81 195 2.0 6.0 0.00 0.00 0.00 46 1013.1
20260510173046 80 203 0.0 4.0 0.00 0.00 0.00 45 1013.4
20260510172813 80 346 0.0 0.0 0.00 0.00 0.00 47 1013.1
20260510172523 79 0 0.0 4.0 0.00 0.00 0.00 46 1013.4
20260510172321 80 188 0.0 4.0 0.00 0.00 0.00 47 1013.1
20260510172025 79 0 0.0 7.0 0.00 0.00 0.00 46 1013.4
20260510171825 80 62 0.0 7.0 0.00 0.00 0.00 47 1013.1
20260510171540 80 270 0.0 7.0 0.00 0.00 0.00 44 1013.5
20260510171329 80 2 2.0 7.0 0.00 0.00 0.00 45 1013.2
20260510171022 80 195 0.0 4.0 0.00 0.00 0.00 47 1013.4
20260510170853 80 36 0.0 4.0 0.00 0.00 0.00 47 1013.1
20260510170523 80 0 0.0 6.0 0.00 0.00 0.00 49 1013.5
20260510170316 80 254 1.0 7.0 0.00 0.00 0.00 45 1013.2
20260510170038 80 0 0.0 6.0 0.00 0.00 0.00 46 1013.5
20260510165820 80 142 0.0 7.0 0.00 0.00 0.00 48 1013.2
20260510165525 79 49 1.0 6.0 0.00 0.00 0.00 49 1013.6
20260510165347 80 186 0.0 5.0 0.00 0.00 0.00 48 1013.2
20260510165023 79 193 0.0 9.0 0.00 0.00 0.00 45 1013.5
20260510164832 80 185 0.0 9.0 0.00 0.00 0.00 47 1013.1
20260510164540 79 0 2.0 9.0 0.00 0.00 0.00 46 1013.6
20260510164315 79 360 2.0 7.0 0.00 0.00 0.00 48 1013.2
20260510164024 79 302 2.0 5.0 0.00 0.00 0.00 46 1013.7
20260510163843 79 8 1.0 5.0 0.00 0.00 0.00 47 1013.3
20260510163529 79 33 1.0 5.0 0.00 0.00 0.00 50 1013.7
20260510163330 79 7 2.0 5.0 0.00 0.00 0.00 50 1013.3
20260510163038 78 118 0.0 5.0 0.00 0.00 0.00 50 1013.6
20260510162835 78 163 0.0 5.0 0.00 0.00 0.00 54 1013.2
20260510162526 78 0 0.0 5.0 0.00 0.00 0.00 50 1013.8
20260510162338 78 164 0.0 5.0 0.00 0.00 0.00 50 1013.3
20260510162022 77 0 0.0 8.0 0.00 0.00 0.00 53 1013.8
20260510161826 78 187 0.0 7.0 0.00 0.00 0.00 49 1013.4
20260510161537 77 0 0.0 8.0 0.00 0.00 0.00 50 1013.8
20260510161330 78 195 0.0 7.0 0.00 0.00 0.00 52 1013.4
20260510161026 77 220 0.0 5.0 0.00 0.00 0.00 53 1013.8
20260510160818 77 93 0.0 5.0 0.00 0.00 0.00 52 1013.3
20260510160523 77 112 0.0 5.0 0.00 0.00 0.00 51 1013.7
20260510160322 77 166 0.0 4.0 0.00 0.00 0.00 51 1013.4
20260510160043 77 0 1.0 4.0 0.00 0.00 0.00 53 1013.7
20260510155847 78 86 1.0 4.0 0.00 0.00 0.00 52 1013.4
20260510155526 77 0 0.0 6.0 0.00 0.00 0.00 52 1013.8
20260510155330 77 13 0.0 5.0 0.00 0.00 0.00 51 1013.4
20260510155022 77 37 1.0 6.0 0.00 0.00 0.00 50 1013.9
20260510154835 77 197 1.0 5.0 0.00 0.00 0.00 53 1013.6
20260510154540 76 228 0.0 6.0 0.00 0.00 0.00 52 1013.9
20260510154319 77 202 0.0 5.0 0.00 0.00 0.00 50 1013.5
20260510154025 77 226 0.0 6.0 0.00 0.00 0.00 51 1013.9
20260510153826 77 200 0.0 5.0 0.00 0.00 0.00 54 1013.4
20260510153528 76 0 1.0 7.0 0.00 0.00 0.00 51 1013.9
20260510153332 76 176 0.0 6.0 0.00 0.00 0.00 53 1013.5
20260510153039 76 0 0.0 7.0 0.00 0.00 0.00 52 1013.8
20260510152837 76 169 0.0 6.0 0.00 0.00 0.00 54 1013.4
20260510152525 75 193 0.0 7.0 0.00 0.00 0.00 53 1013.8
20260510152320 76 63 0.0 2.0 0.00 0.00 0.00 54 1013.4
20260510152024 74 0 0.0 6.0 0.00 0.00 0.00 57 1013.9
20260510151831 75 61 0.0 7.0 0.00 0.00 0.00 57 1013.4
20260510151540 74 0 0.0 6.0 0.00 0.00 0.00 55 1013.9
20260510151318 74 260 1.0 7.0 0.00 0.00 0.00 56 1013.5
20260510151025 73 0 0.0 5.0 0.00 0.00 0.00 58 1013.9
20260510150825 73 260 1.0 4.0 0.00 0.00 0.00 59 1013.5
20260510150525 72 0 0.0 5.0 0.00 0.00 0.00 57 1014.0
20260510150330 73 236 0.0 5.0 0.00 0.00 0.00 58 1013.6
20260510150043 72 310 1.0 5.0 0.00 0.00 0.00 59 1014.0
20260510145817 72 260 1.0 5.0 0.00 0.00 0.00 60 1013.5
20260510145524 72 336 0.0 5.0 0.00 0.00 0.00 60 1014.0
20260510145324 72 182 0.0 3.0 0.00 0.00 0.00 58 1013.4
20260510145027 72 0 0.0 3.0 0.00 0.00 0.00 59 1013.8
20260510144832 72 158 0.0 1.0 0.00 0.00 0.00 57 1013.4
20260510144551 72 0 0.0 2.0 0.00 0.00 0.00 59 1013.8
20260510144316 72 21 0.0 2.0 0.00 0.00 0.00 58 1013.3
20260510144026 72 0 0.0 2.0 0.00 0.00 0.00 56 1013.7
20260510143821 72 291 0.0 2.0 0.00 0.00 0.00 57 1013.2
20260510143524 72 276 0.0 4.0 0.00 0.00 0.00 58 1013.6
20260510143326 72 305 0.0 4.0 0.00 0.00 0.00 57 1013.1
20260510143049 71 0 0.0 4.0 0.00 0.00 0.00 59 1013.5
20260510142815 72 14 0.0 4.0 0.00 0.00 0.00 57 1013.1
20260510142525 71 345 0.0 0.0 0.00 0.00 0.00 62 1013.5
20260510142323 71 188 0.0 0.0 0.00 0.00 0.00 63 1013.0
20260510142025 70 0 0.0 1.0 0.00 0.00 0.00 67 1013.4
20260510141827 71 6 0.0 1.0 0.00 0.00 0.00 67 1013.0
20260510141537 70 0 0.0 1.0 0.00 0.00 0.00 66 1013.3
20260510141331 70 163 0.0 1.0 0.00 0.00 0.00 67 1013.0
20260510141028 69 0 0.0 0.0 0.00 0.00 0.00 66 1013.3
20260510140818 69 163 0.0 0.0 0.00 0.00 0.00 67 1012.9
20260510140526 68 0 0.0 2.0 0.00 0.00 0.00 66 1013.3
20260510140326 69 163 0.0 2.0 0.00 0.00 0.00 67 1013.0
20260510140042 68 0 0.0 2.0 0.00 0.00 0.00 70 1013.4
20260510135851 68 161 0.0 2.0 0.00 0.00 0.00 70 1013.1
20260510135525 67 0 0.0 0.0 0.00 0.00 0.00 72 1013.5
20260510135317 68 201 0.0 0.0 0.00 0.00 0.00 70 1013.1
20260510135025 67 0 0.0 0.0 0.00 0.00 0.00 69 1013.5
20260510134821 67 200 0.0 0.0 0.00 0.00 0.00 71 1013.1
20260510134545 66 0 0.0 0.0 0.00 0.00 0.00 72 1013.6
20260510134326 66 215 0.0 0.0 0.00 0.00 0.00 73 1013.2
20260510134024 66 0 0.0 0.0 0.00 0.00 0.00 74 1013.7
20260510133831 66 214 0.0 0.0 0.00 0.00 0.00 73 1013.2
20260510133526 65 0 0.0 0.0 0.00 0.00 0.00 74 1013.6
20260510133340 65 214 0.0 0.0 0.00 0.00 0.00 74 1013.2
20260510133038 64 0 0.0 0.0 0.00 0.00 0.00 75 1013.7
20260510132822 64 214 0.0 0.0 0.00 0.00 0.00 78 1013.3
20260510132525 63 0 0.0 0.0 0.00 0.00 0.00 82 1013.8
20260510132327 63 134 0.0 0.0 0.00 0.00 0.00 81 1013.3
20260510132025 63 0 0.0 0.0 0.00 0.00 0.00 80 1013.7
20260510131831 63 133 0.0 0.0 0.00 0.00 0.00 82 1013.2
20260510131543 62 0 0.0 0.0 0.00 0.00 0.00 82 1013.6
20260510131356 62 132 0.0 0.0 0.00 0.00 0.00 84 1013.2
20260510131025 61 0 0.0 0.0 0.00 0.00 0.00 84 1013.6
20260510130820 61 132 0.0 0.0 0.00 0.00 0.00 85 1013.3
20260510130525 60 0 0.0 0.0 0.00 0.00 0.00 84 1013.6
20260510130324 61 132 0.0 0.0 0.00 0.00 0.00 85 1013.2
20260510130044 60 0 0.0 0.0 0.00 0.00 0.00 87 1013.5
20260510125828 60 132 0.0 0.0 0.00 0.00 0.00 88 1013.2
20260510125525 59 0 0.0 0.0 0.00 0.00 0.00 88 1013.7
20260510125354 59 132 0.0 0.0 0.00 0.00 0.00 90 1013.2
20260510125028 58 0 0.0 0.0 0.00 0.00 0.00 91 1013.6
20260510124817 58 132 0.0 0.0 0.00 0.00 0.00 91 1013.2
20260510124543 57 0 0.0 0.0 0.00 0.00 0.00 92 1013.6
20260510124322 58 132 0.0 0.0 0.00 0.00 0.00 93 1013.3
20260510124025 57 0 0.0 0.0 0.00 0.00 0.00 93 1013.7
20260510123845 57 132 0.0 0.0 0.00 0.00 0.00 94 1013.5
20260510123525 56 0 0.0 0.0 0.00 0.00 0.00 94 1013.9
20260510123352 57 132 0.0 0.0 0.00 0.00 0.00 95 1013.5
20260510123037 56 0 0.0 0.0 0.00 0.00 0.00 95 1013.9
20260510122815 56 132 0.0 0.0 0.00 0.00 0.00 96 1013.4
20260510122525 55 0 0.0 0.0 0.00 0.00 0.00 96 1013.8
20260510122324 55 132 0.0 0.0 0.00 0.00 0.00 97 1013.4
20260510122025 54 0 0.0 0.0 0.00 0.00 0.00 96 1013.8
20260510121849 55 132 0.0 0.0 0.00 0.00 0.00 97 1013.4
20260510121538 54 0 0.0 0.0 0.00 0.00 0.00 96 1013.7
20260510121352 54 132 0.0 0.0 0.00 0.00 0.00 96 1013.4
20260510121026 54 0 0.0 0.0 0.00 0.00 0.00 96 1013.8
20260510120814 54 132 0.0 0.0 0.00 0.00 0.00 96 1013.5
20260510120529 53 0 0.0 0.0 0.00 0.00 0.00 96 1013.8
20260510120322 53 132 0.0 0.0 0.00 0.00 0.00 96 1013.4
20260510120046 53 0 0.0 0.0 0.00 0.00 0.00 96 1013.9
20260510115826 53 132 0.0 0.0 0.00 0.00 0.00 96 1013.5
20260510115525 52 0 0.0 0.0 0.00 0.00 0.00 96 1013.7
20260510115314 53 132 0.0 0.0 0.00 0.00 0.00 96 1013.4
20260510115027 52 0 0.0 0.0 0.00 0.00 0.00 96 1013.7
20260510114823 52 132 0.0 0.0 0.00 0.00 0.00 96 1013.3
20260510114543 52 0 0.0 0.0 0.00 0.00 0.00 96 1013.7
20260510114326 52 132 0.0 0.0 0.00 0.00 0.00 96 1013.3
20260510114026 51 0 0.0 0.0 0.00 0.00 0.00 95 1013.6
20260510113831 52 132 0.0 0.0 0.00 0.00 0.00 96 1013.2
20260510113525 51 0 0.0 0.0 0.00 0.00 0.00 95 1013.5
20260510113335 51 132 0.0 0.0 0.00 0.00 0.00 96 1013.1
20260510113040 50 0 0.0 0.0 0.00 0.00 0.00 95 1013.5
20260510112840 51 132 0.0 0.0 0.00 0.00 0.00 96 1013.0
20260510112525 50 0 0.0 0.0 0.00 0.00 0.00 95 1013.4
20260510112323 50 132 0.0 0.0 0.00 0.00 0.00 95 1012.9
20260510112025 50 0 0.0 0.0 0.00 0.00 0.00 95 1013.3
20260510111832 50 132 0.0 0.0 0.00 0.00 0.00 95 1012.9
20260510111551 49 0 0.0 0.0 0.00 0.00 0.00 94 1013.1
20260510111316 50 132 0.0 0.0 0.00 0.00 0.00 95 1012.8
20260510111024 49 0 0.0 0.0 0.00 0.00 0.00 94 1013.0
20260510110821 49 132 0.0 0.0 0.00 0.00 0.00 95 1012.6
20260510110525 49 0 0.0 0.0 0.00 0.00 0.00 94 1012.8
20260510110325 49 132 0.0 0.0 0.00 0.00 0.00 95 1012.5
20260510110038 49 0 0.0 0.0 0.00 0.00 0.00 94 1012.9
20260510105830 49 0.0 0.0 0.00 0.00 0.00 95 1012.5
20260510105525 48 0.0 0.0 0.00 0.00 0.00 94 1012.7
20260510105317 49 0.0 0.0 0.00 0.00 0.00 95 1012.4
20260510105025 48 0.0 0.0 0.00 0.00 0.00 94 1012.7
20260510104824 49 0.0 0.0 0.00 0.00 0.00 94 1012.3
20260510104546 48 0.0 0.0 0.00 0.00 0.00 94 1012.6
20260510104332 49 0.0 0.0 0.00 0.00 0.00 94 1012.3
20260510104025 48 0.0 0.0 0.00 0.00 0.00 94 1012.5
20260510103819 49 0.0 0.0 0.00 0.00 0.00 94 1012.2
20260510103525 48 0.0 0.0 0.00 0.00 0.00 94 1012.4
20260510103327 49 0.0 0.0 0.00 0.00 0.00 94 1012.1
20260510103038 48 0.0 0.0 0.00 0.00 0.00 93 1012.2
20260510102838 49 0.0 0.0 0.00 0.00 0.00 94 1011.9
20260510102525 48 0.0 0.0 0.00 0.00 0.00 93 1012.0
20260510102325 49 0.0 0.0 0.00 0.00 0.00 94 1011.8
20260510102026 48 0.0 0.0 0.00 0.00 0.00 93 1012.0
20260510101812 49 0.0 0.0 0.00 0.00 0.00 94 1011.7
20260510101543 48 0.0 0.0 0.00 0.00 0.00 93 1011.9
20260510101319 49 0.0 0.0 0.00 0.00 0.00 94 1011.7
20260510101025 48 0.0 0.0 0.00 0.00 0.00 93 1011.9
20260510100826 49 0.0 0.0 0.00 0.00 0.00 94 1011.7
20260510100525 48 0.0 0.0 0.00 0.00 0.00 93 1011.9
20260510100333 49 0.0 0.0 0.00 0.00 0.00 94 1011.6
20260510100040 48 0.0 0.0 0.00 0.00 0.00 93 1011.8
20260510095822 49 0.0 0.0 0.00 0.00 0.00 94 1011.6
20260510095525 48 0.0 0.0 0.00 0.00 0.00 93 1011.8
20260510095329 49 0.0 0.0 0.00 0.00 0.00 94 1011.4
20260510095024 48 0.0 0.0 0.00 0.00 0.00 93 1011.6
20260510094816 49 0.0 0.0 0.00 0.00 0.00 94 1011.5
20260510094541 48 0.0 0.0 0.00 0.00 0.00 93 1011.7
20260510094324 49 0.0 0.0 0.00 0.00 0.00 94 1011.4
20260510094025 49 0.0 0.0 0.00 0.00 0.00 93 1011.7
20260510093832 49 0.0 0.0 0.00 0.00 0.00 94 1011.4
20260510093526 49 0.0 0.0 0.00 0.00 0.00 93 1011.6
20260510093322 49 0.0 0.0 0.00 0.00 0.00 93 1011.4
20260510093037 49 0.0 0.0 0.00 0.00 0.00 93 1011.7
20260510092829 49 0.0 0.0 0.00 0.00 0.00 94 1011.5
20260510092526 49 0.0 0.0 0.00 0.00 0.00 93 1011.8
20260510092334 49 0.0 0.0 0.00 0.00 0.00 93 1011.6
20260510092026 49 0.0 0.0 0.00 0.00 0.00 93 1011.8
20260510091818 49 0.0 0.0 0.00 0.00 0.00 93 1011.6
20260510091537 49 0.0 0.0 0.00 0.00 0.00 93 1011.7
20260510091322 49 0.0 0.0 0.00 0.00 0.00 93 1011.5
20260510091025 49 0.0 0.0 0.00 0.00 0.00 93 1011.8
20260510090849 49 0.0 0.0 0.00 0.00 0.00 93 1011.5
20260510090527 49 0.0 0.0 0.00 0.00 0.00 93 1011.6
20260510090353 49 0.0 0.0 0.00 0.00 0.00 93 1011.4
20260510090040 49 0.0 0.0 0.00 0.00 0.00 93 1011.5
20260510085816 50 0.0 0.0 0.00 0.00 0.00 93 1011.3
20260510085528 49 0.0 0.0 0.00 0.00 0.00 93 1011.6
20260510085321 50 0.0 0.0 0.00 0.00 0.00 93 1011.3
20260510085025 49 0.0 0.0 0.00 0.00 0.00 93 1011.6
20260510084829 50 0.0 0.0 0.00 0.00 0.00 93 1011.4
20260510084542 49 0.0 0.0 0.00 0.00 0.00 93 1011.6
20260510084316 50 0.0 0.0 0.00 0.00 0.00 93 1011.4
20260510084025 49 0.0 0.0 0.00 0.00 0.00 93 1011.6
20260510083823 50 0.0 0.0 0.00 0.00 0.00 93 1011.4
20260510083529 49 0.0 0.0 0.00 0.00 0.00 92 1011.6
20260510083335 50 0.0 0.0 0.00 0.00 0.00 93 1011.4
20260510083039 49 0.0 0.0 0.00 0.00 0.00 92 1011.6
20260510082820 50 0.0 0.0 0.00 0.00 0.00 93 1011.4
20260510082527 50 0.0 0.0 0.00 0.00 0.00 92 1011.6
20260510082324 50 0.0 0.0 0.00 0.00 0.00 93 1011.3
20260510082025 50 0.0 0.0 0.00 0.00 0.00 92 1011.5
20260510081817 50 0.0 0.0 0.00 0.00 0.00 93 1011.4
20260510081542 50 0.0 0.0 0.00 0.00 0.00 93 1011.5
20260510081321 50 0.0 0.0 0.00 0.00 0.00 93 1011.3
20260510081025 50 0.0 0.0 0.00 0.00 0.00 93 1011.4
20260510080826 50 0.0 0.0 0.00 0.00 0.00 93 1011.3
20260510080525 50 0.0 0.0 0.00 0.00 0.00 93 1011.4
20260510080332 51 0.0 0.0 0.00 0.00 0.00 93 1011.2
20260510080039 50 0.0 0.0 0.00 0.00 0.00 93 1011.5
20260510075819 51 0.0 0.0 0.00 0.00 0.00 93 1011.2
20260510075524 50 0.0 0.0 0.00 0.00 0.00 93 1011.3
20260510075323 51 0.0 0.0 0.00 0.00 0.00 93 1011.1
20260510075025 50 0.0 0.0 0.00 0.00 0.00 92 1011.2
20260510074828 51 0.0 0.0 0.00 0.00 0.00 93 1010.9
20260510074537 50 0.0 0.0 0.00 0.00 0.00 92 1011.1
20260510074316 51 0.0 0.0 0.00 0.00 0.00 93 1010.9
20260510074025 50 0.0 0.0 0.00 0.00 0.00 92 1011.0
20260510073820 51 0.0 0.0 0.00 0.00 0.00 93 1010.8
20260510073530 50 0.0 0.0 0.00 0.00 0.00 92 1010.9
20260510073324 51 0.0 0.0 0.00 0.00 0.00 93 1010.8
20260510073037 51 0.0 0.0 0.00 0.00 0.00 92 1010.9
20260510072832 51 0.0 0.0 0.00 0.00 0.00 93 1010.7
20260510072525 51 0.0 0.0 0.00 0.00 0.00 92 1010.9
20260510072319 51 0.0 0.0 0.00 0.00 0.00 93 1010.7
20260510072026 51 0.0 0.0 0.00 0.00 0.00 92 1010.8
20260510071826 51 0.0 0.0 0.00 0.00 0.00 92 1010.6
20260510071542 51 0.0 0.0 0.00 0.00 0.00 92 1010.7
20260510071333 51 0.0 0.0 0.00 0.00 0.00 93 1010.5
20260510071025 51 0.0 0.0 0.00 0.00 0.00 92 1010.7
20260510070817 52 0.0 0.0 0.00 0.00 0.00 93 1010.5
20260510070527 51 0.0 0.0 0.00 0.00 0.00 92 1010.7
20260510070321 52 0.0 0.0 0.00 0.00 0.00 92 1010.5
20260510070043 51 0.0 0.0 0.00 0.00 0.00 92 1010.6
20260510065824 52 0.0 0.0 0.00 0.00 0.00 92 1010.4
20260510065527 51 0.0 0.0 0.00 0.00 0.00 92 1010.7
20260510065316 52 0.0 0.0 0.00 0.00 0.00 92 1010.4
20260510065024 51 0.0 0.0 0.00 0.00 0.00 92 1010.6
20260510064819 52 0.0 0.0 0.00 0.00 0.00 92 1010.4
20260510064539 51 0.0 0.0 0.00 0.00 0.00 92 1010.6
20260510064324 52 0.0 0.0 0.00 0.00 0.00 92 1010.3
20260510064024 52 0.0 0.0 0.00 0.00 0.00 92 1010.5
20260510063832 52 0.0 0.0 0.00 0.00 0.00 92 1010.2
20260510063525 52 0.0 0.0 0.00 0.00 0.00 92 1010.3
20260510063316 52 0.0 0.0 0.00 0.00 0.00 92 1010.1
20260510063039 52 0.0 0.0 0.00 0.00 0.00 92 1010.3
20260510062819 52 0.0 0.0 0.00 0.00 0.00 92 1010.1
20260510062525 52 0.0 0.0 0.00 0.00 0.00 91 1010.3
20260510062345 52 0.0 0.0 0.00 0.00 0.00 92 1010.1
20260510062025 52 0.0 0.0 0.00 0.00 0.00 91 1010.4
20260510061828 53 0.0 0.0 0.00 0.00 0.00 92 1010.1
20260510061538 52 0.0 0.0 0.00 0.00 0.00 91 1010.3
20260510061316 53 0.0 0.0 0.00 0.00 0.00 92 1010.1
20260510061026 52 0.0 0.0 0.00 0.00 0.00 92 1010.4
20260510060844 53 0.0 0.0 0.00 0.00 0.00 92 1010.0
20260510060526 52 0.0 0.0 0.00 0.00 0.00 92 1010.3
20260510060330 53 0.0 0.0 0.00 0.00 0.00 92 1010.0
20260510060047 52 0.0 0.0 0.00 0.00 0.00 91 1010.3
20260510055837 53 0.0 0.0 0.00 0.00 0.00 92 1010.0
20260510055525 53 0.0 0.0 0.00 0.00 0.00 91 1010.4
20260510055323 53 0.0 0.0 0.00 0.00 0.00 92 1010.0
20260510055025 53 0.0 0.0 0.00 0.00 0.00 91 1010.4
20260510054835 53 0.0 0.0 0.00 0.00 0.00 92 1010.1
20260510054541 53 0.0 0.0 0.00 0.00 0.00 91 1010.5
20260510054339 53 0.0 0.0 0.00 0.00 0.00 92 1010.1
20260510054025 53 0.0 0.0 0.00 0.00 0.00 91 1010.6
20260510053823 53 0.0 0.0 0.00 0.00 0.00 92 1010.2
20260510053526 53 0.0 0.0 0.00 0.00 0.00 91 1010.7
20260510053348 54 0.0 0.0 0.00 0.00 0.00 92 1010.3
20260510053041 53 0.0 0.0 0.00 0.00 0.00 91 1010.7
20260510052813 54 0.0 0.0 0.00 0.00 0.00 92 1010.2
20260510052526 53 0.0 0.0 0.00 0.00 0.00 91 1010.7
20260510052321 54 0.0 0.0 0.00 0.00 0.00 92 1010.3
20260510052025 53 0.0 0.0 0.00 0.00 0.00 91 1010.8
20260510051545 53 0.0 0.0 0.00 0.00 0.00 91 1010.8
20260510051342 54 0.0 0.0 0.00 0.00 0.00 91 1010.3
20260510051025 54 0.0 0.0 0.00 0.00 0.00 91 1010.8
20260510050826 54 0.0 0.0 0.00 0.00 0.00 91 1010.3
20260510050524 54 0.0 0.0 0.00 0.00 0.00 91 1010.7
20260510050314 54 0.0 0.0 0.00 0.00 0.00 91 1010.3
20260510050037 54 0.0 0.0 0.00 0.00 0.00 91 1010.7
20260510045821 54 0.0 0.0 0.00 0.00 0.00 91 1010.3
20260510045529 54 0.0 0.0 0.00 0.00 0.00 91 1010.7
20260510045328 55 0.0 0.0 0.00 0.00 0.00 91 1010.2
20260510045026 54 0.0 0.0 0.00 0.00 0.00 90 1010.6
20260510044832 55 0.0 0.0 0.00 0.00 0.00 91 1010.2
20260510044538 54 0.0 0.0 0.00 0.00 0.00 90 1010.7
20260510044316 55 0.0 0.0 0.00 0.00 0.00 91 1010.3
20260510044027 54 0.0 0.0 0.00 0.00 0.00 91 1010.7
20260510043843 55 0.0 0.0 0.00 0.00 0.00 91 1010.3
20260510043526 54 0.0 0.0 0.00 0.00 0.00 90 1010.7
20260510043313 55 0.0 0.0 0.00 0.00 0.00 91 1010.2
20260510043107 55 0.0 0.0 0.00 0.00 0.00 90 1010.7
20260510042820 55 0.0 0.0 0.00 0.00 0.00 90 1010.2
20260510042523 55 0.0 0.0 0.00 0.00 0.00 90 1010.7
20260510042328 55 0.0 0.0 0.00 0.00 0.00 90 1010.2
20260510042025 55 0.0 0.0 0.00 0.00 0.00 90 1010.6
20260510041815 56 0.0 0.0 0.00 0.00 0.00 90 1010.2
20260510041549 55 0.0 0.0 0.00 0.00 0.00 90 1010.6
20260510041322 56 0.0 0.0 0.00 0.00 0.00 90 1010.1
20260510041025 55 0.0 0.0 0.00 0.00 0.00 90 1010.6
20260510040827 56 0.0 0.0 0.00 0.00 0.00 90 1010.1
20260510040525 55 0.0 0.0 0.00 0.00 0.00 90 1010.6
20260510040332 56 0.0 0.0 0.00 0.00 0.00 90 1010.1
20260510040039 56 0.0 0.0 0.00 0.00 0.00 89 1010.5
20260510035816 56 0.0 0.0 0.00 0.00 0.00 90 1010.0
20260510035527 56 0.0 0.0 0.00 0.00 0.00 89 1010.6
20260510035320 56 0.0 0.0 0.00 0.00 0.00 89 1010.0
20260510035029 56 0.0 0.0 0.00 0.00 0.00 89 1010.5
20260510034827 56 0.0 0.0 0.00 0.00 0.00 89 1010.0
20260510034543 56 0.0 0.0 0.00 0.00 0.00 89 1010.4
20260510034317 57 0.0 0.0 0.00 0.00 0.00 89 1010.0
20260510034026 56 0.0 0.0 0.00 0.00 0.00 88 1010.5
20260510033824 57 0.0 0.0 0.00 0.00 0.00 89 1010.0
20260510033526 56 0.0 0.0 0.00 0.00 0.00 88 1010.5
20260510033331 57 0.0 0.0 0.00 0.00 0.00 89 1010.0
20260510033048 57 0.0 0.0 0.00 0.00 0.00 88 1010.5
20260510032817 57 0.0 0.0 0.00 0.00 0.00 89 1010.0
20260510032527 57 0.0 0.0 0.00 0.00 0.00 88 1010.5
20260510032322 57 0.0 0.0 0.00 0.00 0.00 88 1010.0
20260510032023 57 0.0 0.0 0.00 0.00 0.00 88 1010.5
20260510031847 57 0.0 0.0 0.00 0.00 0.00 88 1010.0
20260510031613 57 0.0 0.0 0.00 0.00 0.00 87 1010.5
20260510031332 58 0.0 0.0 0.00 0.00 0.00 88 1009.9
20260510031027 57 0.0 0.0 0.00 0.00 0.00 87 1010.4
20260510030816 58 0.0 0.0 0.00 0.00 0.00 87 1009.9
20260510030526 57 0.0 0.0 0.00 0.00 0.00 87 1010.4
20260510030321 58 0.0 0.0 0.00 0.00 0.00 87 1010.0
20260510030042 57 0.0 0.0 0.00 0.00 0.00 86 1010.5
20260510025827 58 0.0 0.0 0.00 0.00 0.00 87 1009.9
20260510025525 58 0.0 0.0 0.00 0.00 0.00 86 1010.4
20260510025316 58 0.0 0.0 0.00 0.00 0.00 87 1009.9
20260510025025 58 0.0 0.0 0.00 0.00 0.00 86 1010.4
20260510024824 58 0.0 0.0 0.00 0.00 0.00 86 1010.0
20260510024541 58 0.0 0.0 0.00 0.00 0.00 86 1010.4
20260510024328 59 0.0 0.0 0.00 0.00 0.00 86 1009.9
20260510024025 58 0.0 0.0 0.00 0.00 0.00 86 1010.4
20260510023832 59 0.0 0.0 0.00 0.00 0.00 86 1009.9
20260510023522 58 0.0 0.0 0.00 0.00 0.00 85 1010.3
20260510023316 59 0.0 0.0 0.00 0.00 0.00 85 1009.9
20260510023047 59 0.0 0.0 0.00 0.00 0.00 85 1010.3
20260510022820 59 0.0 0.0 0.00 0.00 0.00 85 1009.8
20260510022523 59 0.0 0.0 0.00 0.00 0.00 84 1010.3
20260510022348 59 0.0 0.0 0.00 0.00 0.00 84 1009.8
20260510022023 59 0.0 0.0 0.00 0.00 0.00 84 1010.2
20260510021835 60 0.0 0.0 0.00 0.00 0.00 84 1009.7
20260510021542 59 0.0 0.0 0.00 0.00 0.00 83 1010.1
20260510021319 60 0.0 0.0 0.00 0.00 0.00 84 1009.7
20260510021022 59 0.0 0.0 0.00 0.00 0.00 83 1010.1
20260510020821 60 0.0 0.0 0.00 0.00 0.00 83 1009.6
20260510020523 60 0.0 0.0 0.00 0.00 0.00 82 1010.1
20260510020325 60 0.0 0.0 0.00 0.00 0.00 83 1009.7
20260510020043 60 0.0 0.0 0.00 0.00 0.00 82 1010.0
20260510015833 61 0.0 0.0 0.00 0.00 0.00 82 1009.6
20260510015523 60 0.0 0.0 0.00 0.00 0.00 82 1010.0
20260510015320 61 0.0 0.0 0.00 0.00 0.00 82 1009.6
20260510015025 60 0.0 0.0 0.00 0.00 0.00 81 1010.0
20260510014827 61 0.0 0.0 0.00 0.00 0.00 82 1009.6
20260510014538 61 0.0 0.0 0.00 0.00 0.00 81 1010.0
20260510014331 61 0.0 0.0 0.00 0.00 0.00 81 1009.6
20260510014022 61 0.0 0.0 0.00 0.00 0.00 81 1009.9
20260510013818 62 0.0 0.0 0.00 0.00 0.00 81 1009.4
20260510013526 61 0.0 0.0 0.00 0.00 0.00 80 1009.8
20260510013326 62 0.0 0.0 0.00 0.00 0.00 80 1009.4
20260510013042 61 0.0 0.0 0.00 0.00 0.00 80 1009.8
20260510012830 62 0.0 0.0 0.00 0.00 0.00 80 1009.3
20260510012527 61 0.0 0.0 0.00 0.00 0.00 79 1009.7
20260510012337 62 0.0 0.0 0.00 0.00 0.00 80 1009.2
20260510012026 62 0.0 0.0 0.00 0.00 0.00 80 1009.6
20260510011820 62 0.0 0.0 0.00 0.00 0.00 80 1009.0
20260510011553 61 0.0 0.0 0.00 0.00 0.00 80 1009.4
20260510011326 62 0.0 0.0 0.00 0.00 0.00 80 1009.0
20260510011027 61 0.0 0.0 0.00 0.00 0.00 80 1009.4
20260510010830 62 0.0 0.0 0.00 0.00 0.00 80 1008.9
20260510010523 61 0.0 0.0 0.00 0.00 0.00 80 1009.3
20260510010317 62 0.0 0.0 0.00 0.00 0.00 80 1008.8
20260510010045 61 0.0 0.0 0.00 0.00 0.00 79 1009.2
20260510005827 62 0.0 0.0 0.00 0.00 0.00 80 1008.8
20260510005523 62 0.0 0.0 0.00 0.00 0.00 79 1009.2
20260510005331 62 0.0 0.0 0.00 0.00 0.00 79 1008.8
20260510005022 62 0.0 0.0 0.00 0.00 0.00 78 1009.2
20260510004816 62 0.0 0.0 0.00 0.00 0.00 79 1008.7
20260510004538 62 0.0 0.0 0.00 0.00 0.00 78 1009.1
20260510004323 63 0.0 0.0 0.00 0.00 0.00 78 1008.6
20260510004024 62 0.0 0.0 0.00 0.00 0.00 77 1009.0
20260510003831 63 0.0 0.0 0.00 0.00 0.00 77 1008.6
20260510003525 63 0.0 0.0 0.00 0.00 0.00 76 1009.0
20260510003337 63 0.0 0.0 0.00 0.00 0.00 76 1008.6
20260510003044 63 0.0 0.0 0.00 0.00 0.00 76 1008.9
20260510002824 64 0.0 0.0 0.00 0.00 0.00 76 1008.5
20260510002522 64 0.0 0.0 0.00 0.00 0.00 75 1008.9
20260510002331 64 0.0 0.0 0.00 0.00 0.00 75 1008.5
20260510002029 64 0.0 0.0 0.00 0.00 0.00 74 1008.8
20260510001816 65 0.0 0.0 0.00 0.00 0.00 74 1008.4
20260510001543 64 0.0 0.0 0.00 0.00 0.00 74 1008.8
20260510001320 65 0.0 0.0 0.00 0.00 0.00 74 1008.4
20260510001025 65 0.0 0.0 0.00 0.00 0.00 73 1008.7
20260510000827 65 0.0 0.0 0.00 0.00 0.00 74 1008.4
20260510000526 65 0.0 0.0 0.00 0.00 0.00 72 1008.7
20260510000336 66 0.0 0.0 0.00 0.00 0.00 73 1008.3
20260510000047 65 0.0 0.0 0.00 0.00 0.00 72 1008.7
20260509235822 66 0.0 0.0 0.00 0.00 0.00 72 1008.3
20260509235528 66 0.0 0.0 0.00 0.00 0.00 71 1008.7
20260509235326 66 165 0.0 0.0 0.00 0.00 0.00 71 1008.4
20260509235025 66 0.0 0.0 0.00 0.00 0.00 71 1008.6
20260509234832 67 165 0.0 0.0 0.00 0.00 0.00 71 1008.3
20260509234540 66 0 0.0 0.0 0.00 0.00 0.00 70 1008.6